This demonstration page uses our WeatherBlox Daily Observations layout. Learn more.

Left ArrowRight Arrow

Hourly Observations for November 11, 2020

Temp ( °F °C ) Dew Point ( °F °C ) Humidity (%) Winds ( mph kmh ) Pressure ( in mb ) Visibility ( mi km ) Precip ( " mm )
12:52 am 00:52 Clear 28 -2.2 24 -4.4 85 85 S 7 11 30.00 1016 10 16 0.00 0.00
1:52 am 01:52 Clear 26 -3.3 24 -4.4 92 92 SSE 9 15 30.02 1017 10 16 0.00 0.00
2:52 am 02:52 Clear 26 -3.3 24 -4.4 92 92 SSE 9 15 30.01 1016 10 16 0.00 0.00
3:52 am 03:52 Clear 26 -3.3 24 -4.4 92 92 SSE 7 11 30.02 1017 10 16 0.00 0.00
4:52 am 04:52 Mostly Clear 27 -2.8 25 -3.9 92 92 SSE 9 15 30.03 1017 10 16 0.00 0.00
5:52 am 05:52 Mostly Clear 27 -2.8 25 -3.9 92 92 SSE 10 17 30.03 1017 10 16 0.00 0.00
6:52 am 06:52 Mostly Clear 27 -2.8 25 -3.9 92 92 SSE 7 11 30.04 1017 10 16 0.00 0.00
7:52 am 07:52 Sunny 29 -1.7 27 -2.8 92 92 S 9 15 30.05 1018 10 16 0.00 0.00
8:52 am 08:52 Sunny 31 -0.6 28 -2.2 89 89 S 12 19 30.06 1018 10 16 0.00 0.00
9:52 am 09:52 Mostly Sunny 36 2.2 29 -1.7 76 76 SSW 10 17 30.06 1018 10 16 0.00 0.00
10:52 am 10:52 Mostly Sunny 41 5 31 -0.6 67 67 S 9 15 30.06 1018 10 16 0.00 0.00
11:52 am 11:52 Mostly Sunny 47 8.3 30 -1.1 52 52 WSW 10 17 30.05 1018 10 16 0.00 0.00
12:52 pm 12:52 Mostly Sunny 49 9.4 32 0 52 52 W 8 13 30.04 1017 10 16 0.00 0.00
1:52 pm 13:52 Sunny 51 10.6 31 -0.6 46 46 W 12 19 30.02 1017 10 16 0.00 0.00
2:52 pm 14:52 Sunny 52 11.1 30 -1.1 43 43 W 14 22 30.02 1017 10 16 0.00 0.00
3:52 pm 15:52 Mostly Sunny 52 11.1 30 -1.1 43 43 W 8 13 30.02 1017 10 16 0.00 0.00
4:52 pm 16:52 Mostly Sunny 49 9.4 29 -1.7 46 46 W 5 7 30.03 1017 10 16 0.00 0.00
5:52 pm 17:52 Mostly Clear 41 5 31 -0.6 67 67 ESE 5 7 30.04 1017 10 16 0.00 0.00
6:52 pm 18:52 Mostly Clear 39 3.9 30 -1.1 70 70 SE 3 6 30.06 1018 10 16 0.00 0.00
7:52 pm 19:52 Mostly Clear 38 3.3 31 -0.6 76 76 SE 5 7 30.06 1018 10 16 0.00 0.00
8:52 pm 20:52 Mostly Clear 35 1.7 31 -0.6 85 85 SSE 7 11 30.07 1018 10 16 0.00 0.00
9:52 pm 21:52 Mostly Clear 38 3.3 30 -1.1 73 73 SSE 6 9 30.06 1018 10 16 0.00 0.00
10:52 pm 22:52 Mostly Clear 36 2.2 30 -1.1 79 79 SSE 6 9 30.06 1018 10 16 0.00 0.00
11:52 pm 23:52 Mostly Clear 36 2.2 30 -1.1 79 79 SSE 6 9 30.06 1018 10 16 0.00 0.00

Powered by AerisWeather